San Antonio, TX

9:27 AM CDT on September 27, 2016 (GMT -0500)
Stinson Municipal

Weather History for KSSF - December, 2012

Change the Weather History Date:

Friday, December 14, 2012

  Actual Average Record
Temperature  
Mean Temperature 64 °F -  
Max Temperature 72 °F 62 °F 81 °F (2008)
Min Temperature 57 °F 39 °F 30 °F (2003)
Growing Degree Days 14 (Base 50)    
Moisture  
Dew Point 58 °F    
Average Humidity 79    
Maximum Humidity 87    
Minimum Humidity 71    
Precipitation  
Precipitation 0.00 in - - ()
Sea Level Pressure  
Sea Level Pressure 29.99 in    
Wind  
Wind Speed 7 mph (SE)    
Max Wind Speed 17 mph    
Max Gust Speed 24 mph    
Visibility 10 miles    
Events Rain    
Averages and records for this station are not official NWS values.
T = Trace of Precipitation, MM = Missing Value Source: NWS Daily Summary

Daily Weather History Graph

Daily Weather History Graph

Search for Another Location

Airport or City:

Trip Planner

Search our weather history database for the weather conditions in past years. The results will help you decide how hot, cold, wet, or windy it might be!

Date:

Astronomy

Dec. 14, 2012 Rise Set
Actual Time 7:20 AM CST 5:37 PM CST
Civil Twilight 6:54 AM CST 6:03 PM CST
Nautical Twilight 6:24 AM CST 6:33 PM CST
Astronomical Twilight 5:55 AM CST 7:02 PM CST
Moon 8:30 AM CST (12/14) 7:26 PM CST (12/14)
Length of Visible Light 11h 09m
Length of Day
10h 16m
Waxing Crescent, 3% of the Moon is Illuminated
Dec 14
Waxing Crescent
Dec 19
First Quarter
Dec 28
Full
Jan 4
Last Quarter
Jan 11
New

Hourly Weather History & Observations

Time (CST) Temp. Dew Point Humidity Pressure Visibility Wind Dir Wind Speed Gust Speed Precip Events Conditions
12:53 AM 57.9 °F 48.9 °F 72% 30.14 in 10.0 mi ESE 5.8 mph - N/A   Overcast
1:53 AM 57.9 °F 50.0 °F 75% 30.13 in 10.0 mi ESE 5.8 mph - N/A   Overcast
2:53 AM 59.0 °F 50.0 °F 72% 30.12 in 10.0 mi ESE 5.8 mph - N/A   Overcast
3:53 AM 57.9 °F 51.1 °F 78% 30.11 in 10.0 mi ESE 6.9 mph - N/A   Overcast
4:01 AM 59.0 °F 51.8 °F 77% 30.11 in 10.0 mi East 6.9 mph - N/A   Overcast
4:14 AM 59.0 °F 51.8 °F 77% 30.11 in 10.0 mi ESE 8.1 mph - N/A   Overcast
4:43 AM 57.2 °F 51.8 °F 82% 30.10 in 10.0 mi ESE 4.6 mph - N/A   Overcast
4:53 AM 59.0 °F 51.1 °F 75% 30.09 in 10.0 mi ENE 3.5 mph - N/A   Overcast
5:53 AM 57.9 °F 51.1 °F 78% 30.10 in 10.0 mi East 3.5 mph - N/A   Overcast
6:53 AM 57.0 °F 53.1 °F 87% 30.11 in 10.0 mi NE 3.5 mph - 0.00 in   Overcast
7:53 AM 57.0 °F 53.1 °F 87% 30.10 in 10.0 mi East 4.6 mph - 0.00 in   Overcast
8:53 AM 59.0 °F 55.0 °F 87% 30.09 in 10.0 mi East 8.1 mph - 0.00 in   Overcast
9:39 AM 60.8 °F 55.4 °F 82% 30.10 in 10.0 mi ESE 6.9 mph - N/A   Overcast
9:53 AM 61.0 °F 57.0 °F 87% 30.09 in 10.0 mi ESE 6.9 mph - 0.00 in Rain Light Rain
10:53 AM 63.0 °F 57.9 °F 84% 30.06 in 10.0 mi ESE 10.4 mph - 0.00 in   Overcast
11:53 AM 64.9 °F 59.0 °F 81% 30.04 in 10.0 mi ESE 3.5 mph - N/A   Overcast
12:53 PM 66.9 °F 61.0 °F 81% 29.98 in 10.0 mi SE 5.8 mph - N/A   Overcast
1:53 PM 70.0 °F 62.1 °F 76% 29.93 in 10.0 mi SSE 10.4 mph - N/A   Overcast
2:53 PM 71.1 °F 62.1 °F 73% 29.89 in 10.0 mi SSE 11.5 mph 21.9 mph N/A   Overcast
3:27 PM 71.6 °F 62.6 °F 73% 29.88 in 10.0 mi SSE 13.8 mph - N/A   Overcast
3:53 PM 72.0 °F 62.1 °F 71% 29.86 in 10.0 mi SSE 10.4 mph 21.9 mph N/A   Overcast
4:07 PM 71.6 °F 62.6 °F 73% 29.89 in 10.0 mi SSE 17.3 mph 24.2 mph N/A   Overcast
4:53 PM 72.0 °F 63.0 °F 73% 29.87 in 10.0 mi SSE 9.2 mph 20.7 mph N/A   Overcast
5:53 PM 72.0 °F 63.0 °F 73% 29.86 in 10.0 mi SSE 9.2 mph - N/A   Overcast
6:29 PM 71.6 °F 62.6 °F 73% 29.88 in 10.0 mi SSE 12.7 mph 18.4 mph N/A   Mostly Cloudy
6:53 PM 70.0 °F 64.0 °F 81% 29.87 in 10.0 mi SE 10.4 mph - N/A   Scattered Clouds
7:53 PM 71.1 °F 64.0 °F 78% 29.88 in 10.0 mi SSE 15.0 mph 20.7 mph N/A   Overcast
8:29 PM 69.8 °F 64.4 °F 83% 29.89 in 10.0 mi SSE 12.7 mph 19.6 mph N/A   Overcast
8:53 PM 70.0 °F 64.9 °F 84% 29.88 in 10.0 mi SSE 12.7 mph 21.9 mph N/A   Overcast
9:53 PM 70.0 °F 64.9 °F 84% 29.89 in 10.0 mi South 10.4 mph 18.4 mph N/A   Overcast
10:53 PM 70.0 °F 64.9 °F 84% 29.88 in 10.0 mi SSE 6.9 mph - N/A   Overcast
11:53 PM 70.0 °F 66.0 °F 87% 29.87 in 10.0 mi SSE 5.8 mph - N/A   Overcast